Location: Long Geng
(2.6167°N, 114.1333°E)
Time: 20:05:37
(UTC+00:00)

COSMOS 2428 - Pass Details

Date: 14 May 2021
Orbit: 844 x 859 km, 70.9° (Epoch: 16 June)

Event Time Altitude Azimuth Distance (km) Brightness Sun altitude
Exits shadow 21:40:11 10° 244° (WSW) 2,476 4.5 -8.5°
Reaches altitude 10° 21:40:13 10° 244° (WSW) 2,467 4.4 -8.5°
Maximum altitude 21:44:01 18° 286° (WNW) 1,940 4.1 -7.6°
Drops below altitude 10° 21:47:49 10° 329° (NNW) 2,469 5.0 -6.7°
Sets 21:51:03 0° 347° (NNW) 3,405 5.9 -6.0°
